When you browse on this site, cookies collect data to enhance your experience and personalize the content and advertising you see.
Visit our Privacy Policy to learn more. By continuing to use the site, you agree to this use of cookies and data.
  • In Schweiz
  • Länderverzeichnis
  • Für 7 Tage
  • Wassertemperatur
  • Wetterkarte
  • Widgets
  • user-avatar
    Anmelden

    Stündliche Wetter Bern

    Heute, 10 Dezember, Dienstag

    Zeit Temperatur Niederschläge Wind Luftdruck Luftfeuchtigkeit
    00:00 +3°C° 0 mm 2 m/S 717 mmHg 97%
    01:00 +3°C° 0.6 mm 2 m/S 717 mmHg 96%
    02:00 +3°C° 0.6 mm 1 m/S 718 mmHg 96%
    03:00 +3°C° 0.6 mm 1 m/S 718 mmHg 95%
    04:00 +2°C° 0.1 mm 1 m/S 719 mmHg 95%
    05:00 +1°C° 0.1 mm 1 m/S 720 mmHg 95%
    06:00 0°C° 0 mm 0 m/S 721 mmHg 94%
    07:00 0°C° 0 mm 0 m/S 721 mmHg 92%
    08:00 +2°C° 0 mm 1 m/S 721 mmHg 90%
    09:00 +2°C° 0 mm 1 m/S 722 mmHg 88%
    10:00 +3°C° 0 mm 1 m/S 722 mmHg 84%
    11:00 +4°C° 0 mm 1 m/S 721 mmHg 79%
    12:00 +5°C° 0 mm 1 m/S 721 mmHg 75%
    13:00 +4°C° 0 mm 1 m/S 720 mmHg 78%
    14:00 +3°C° 0 mm 1 m/S 720 mmHg 81%
    15:00 +3°C° 0 mm 1 m/S 719 mmHg 85%
    16:00 +2°C° 0 mm 1 m/S 719 mmHg 83%
    17:00 +1°C° 0 mm 1 m/S 719 mmHg 82%
    18:00 0°C° 0 mm 1 m/S 719 mmHg 81%
    19:00 0°C° 0 mm 1 m/S 718 mmHg 79%
    20:00 0°C° 0 mm 1 m/S 718 mmHg 76%
    21:00 0°C° 0 mm 1 m/S 717 mmHg 74%
    22:00 0°C° 0 mm 1 m/S 717 mmHg 73%
    23:00 0°C° 0 mm 1 m/S 717 mmHg 72%

    Morgen, 11 Dezember, Mittwoch

    Zeit Temperatur Niederschläge Wind Luftdruck Luftfeuchtigkeit
    00:00 0°C° 0 mm 1 m/S 716 mmHg 71%
    01:00 +1°C° 0 mm 1 m/S 715 mmHg 70%
    02:00 +1°C° 0 mm 1 m/S 715 mmHg 69%
    03:00 +1°C° 0 mm 1 m/S 714 mmHg 68%
    04:00 +2°C° 0 mm 1 m/S 714 mmHg 67%
    05:00 +2°C° 0 mm 1 m/S 713 mmHg 66%
    06:00 +3°C° 0 mm 1 m/S 713 mmHg 65%
    07:00 +4°C° 0.1 mm 1 m/S 713 mmHg 66%
    08:00 +5°C° 0.1 mm 1 m/S 713 mmHg 66%
    09:00 +5°C° 0.1 mm 1 m/S 712 mmHg 67%
    10:00 +6°C° 0.1 mm 1 m/S 712 mmHg 68%
    11:00 +7°C° 0.1 mm 1 m/S 711 mmHg 69%
    12:00 +8°C° 0.1 mm 1 m/S 710 mmHg 70%
    13:00 +6°C° 0.6 mm 2 m/S 710 mmHg 77%
    14:00 +5°C° 0.6 mm 2 m/S 709 mmHg 84%
    15:00 +3°C° 0.6 mm 3 m/S 709 mmHg 91%
    16:00 +3°C° 1.4 mm 3 m/S 710 mmHg 93%
    17:00 +2°C° 1.4 mm 3 m/S 710 mmHg 95%
    18:00 +2°C° 1.4 mm 3 m/S 711 mmHg 97%
    19:00 +2°C° 0.2 mm 3 m/S 710 mmHg 96%
    20:00 +2°C° 0.2 mm 2 m/S 710 mmHg 94%
    21:00 +2°C° 0.2 mm 2 m/S 709 mmHg 93%
    22:00 +1°C° 0.2 mm 3 m/S 709 mmHg 94%
    23:00 +1°C° 0.2 mm 3 m/S 708 mmHg 95%

    übermorgen, 12 Dezember, Donnerstag

    Zeit Temperatur Niederschläge Wind Luftdruck Luftfeuchtigkeit
    00:00 0°C° 0.2 mm 3 m/S 708 mmHg 96%
    01:00 -1°C° 0.7 mm 4 m/S 708 mmHg 94%
    02:00 -1°C° 0.7 mm 4 m/S 708 mmHg 91%
    03:00 -1°C° 0.7 mm 5 m/S 708 mmHg 89%
    04:00 -1°C° 0.1 mm 4 m/S 708 mmHg 89%
    05:00 -2°C° 0.1 mm 4 m/S 709 mmHg 90%
    06:00 -2°C° 0.1 mm 4 m/S 709 mmHg 90%
    07:00 -1°C° 0.1 mm 3 m/S 709 mmHg 89%
    08:00 -1°C° 0.1 mm 3 m/S 710 mmHg 87%
    09:00 0°C° 0.1 mm 3 m/S 710 mmHg 86%
    10:00 0°C° 0.1 mm 3 m/S 709 mmHg 83%
    11:00 +1°C° 0.1 mm 3 m/S 709 mmHg 81%
    12:00 +2°C° 0.1 mm 3 m/S 708 mmHg 78%
    13:00 +1°C° 0 mm 3 m/S 708 mmHg 80%
    14:00 +1°C° 0 mm 3 m/S 707 mmHg 83%
    15:00 +1°C° 0 mm 2 m/S 706 mmHg 85%
    16:00 -1°C° 0 mm 2 m/S 705 mmHg 84%
    17:00 -2°C° 0 mm 2 m/S 705 mmHg 83%
    18:00 -3°C° 0 mm 2 m/S 704 mmHg 82%
    19:00 -2°C° 0 mm 2 m/S 702 mmHg 80%
    20:00 -2°C° 0 mm 2 m/S 701 mmHg 77%
    21:00 -1°C° 0 mm 2 m/S 700 mmHg 75%
    22:00 -1°C° 0.2 mm 3 m/S 699 mmHg 78%
    23:00 -1°C° 0.2 mm 3 m/S 698 mmHg 82%

    13 Dezember, Freitag

    Zeit Temperatur Niederschläge Wind Luftdruck Luftfeuchtigkeit
    00:00 -1°C° 0.2 mm 4 m/S 697 mmHg 85%
    01:00 -1°C° 0.8 mm 4 m/S 696 mmHg 87%
    02:00 -1°C° 0.8 mm 4 m/S 695 mmHg 90%
    03:00 -1°C° 0.8 mm 4 m/S 694 mmHg 92%
    04:00 -1°C° 2.5 mm 4 m/S 694 mmHg 93%
    05:00 -1°C° 2.5 mm 4 m/S 694 mmHg 93%
    06:00 -1°C° 2.5 mm 4 m/S 694 mmHg 93%
    07:00 -1°C° 1.3 mm 4 m/S 694 mmHg 92%
    08:00 0°C° 1.3 mm 4 m/S 694 mmHg 91%
    09:00 0°C° 1.3 mm 5 m/S 694 mmHg 90%
    10:00 0°C° 0.5 mm 5 m/S 695 mmHg 90%
    11:00 0°C° 0.5 mm 5 m/S 695 mmHg 91%
    12:00 +1°C° 0.5 mm 5 m/S 695 mmHg 91%
    13:00 0°C° 0.3 mm 5 m/S 695 mmHg 92%
    14:00 0°C° 0.3 mm 5 m/S 696 mmHg 92%
    15:00 0°C° 0.3 mm 4 m/S 696 mmHg 93%
    16:00 0°C° 0.5 mm 4 m/S 697 mmHg 94%
    17:00 0°C° 0.5 mm 5 m/S 698 mmHg 95%
    18:00 0°C° 0.5 mm 5 m/S 699 mmHg 97%
    19:00 0°C° 0.6 mm 5 m/S 700 mmHg 97%
    20:00 0°C° 0.6 mm 5 m/S 701 mmHg 97%
    21:00 0°C° 0.6 mm 5 m/S 701 mmHg 97%
    22:00 0°C° 0.5 mm 5 m/S 702 mmHg 97%
    23:00 0°C° 0.5 mm 5 m/S 703 mmHg 97%

    14 Dezember, Samstag

    Zeit Temperatur Niederschläge Wind Luftdruck Luftfeuchtigkeit
    00:00 0°C° 0.5 mm 5 m/S 704 mmHg 97%
    01:00 0°C° 0.1 mm 4 m/S 704 mmHg 95%
    02:00 0°C° 0.1 mm 4 m/S 704 mmHg 93%
    03:00 -1°C° 0.1 mm 4 m/S 705 mmHg 91%
    04:00 0°C° 0.6 mm 4 m/S 705 mmHg 93%
    05:00 0°C° 0.6 mm 4 m/S 705 mmHg 94%
    06:00 +1°C° 0.6 mm 4 m/S 705 mmHg 96%
    07:00 +3°C° 0.6 mm 4 m/S 705 mmHg 96%
    08:00 +3°C° 0.6 mm 4 m/S 706 mmHg 97%
    09:00 +4°C° 0.6 mm 4 m/S 706 mmHg 97%
    10:00 +5°C° 0.6 mm 4 m/S 706 mmHg 97%
    11:00 +5°C° 0.6 mm 4 m/S 706 mmHg 97%
    12:00 +6°C° 0.6 mm 5 m/S 706 mmHg 97%
    13:00 +6°C° 0.9 mm 4 m/S 706 mmHg 97%
    14:00 +6°C° 0.9 mm 4 m/S 706 mmHg 97%
    15:00 +6°C° 0.9 mm 4 m/S 707 mmHg 97%
    16:00 +6°C° 0.5 mm 4 m/S 707 mmHg 96%
    17:00 +6°C° 0.5 mm 4 m/S 708 mmHg 96%
    18:00 +6°C° 0.5 mm 4 m/S 709 mmHg 96%
    19:00 +6°C° 0.3 mm 4 m/S 709 mmHg 96%
    20:00 +7°C° 0.3 mm 3 m/S 709 mmHg 95%
    21:00 +5°C° 0.3 mm 3 m/S 709 mmHg 95%
    22:00 +7°C° 0.8 mm 3 m/S 709 mmHg 95%
    23:00 +7°C° 0.8 mm 3 m/S 709 mmHg 95%

    15 Dezember, Sonntag

    Zeit Temperatur Niederschläge Wind Luftdruck Luftfeuchtigkeit
    00:00 +7°C° 0.8 mm 3 m/S 709 mmHg 94%
    01:00 +5°C° 0.2 mm 3 m/S 709 mmHg 93%
    02:00 +5°C° 0.2 mm 3 m/S 709 mmHg 92%
    03:00 +5°C° 0.2 mm 3 m/S 709 mmHg 91%
    04:00 +5°C° 0 mm 3 m/S 709 mmHg 91%
    05:00 +5°C° 0 mm 3 m/S 709 mmHg 90%
    06:00 +5°C° 0 mm 3 m/S 709 mmHg 90%
    07:00 +5°C° 0 mm 3 m/S 709 mmHg 90%
    08:00 +6°C° 0 mm 4 m/S 710 mmHg 90%
    09:00 +6°C° 0 mm 4 m/S 710 mmHg 90%
    10:00 +7°C° 0 mm 4 m/S 710 mmHg 89%
    11:00 +8°C° 0 mm 4 m/S 710 mmHg 89%
    12:00 +8°C° 0 mm 4 m/S 710 mmHg 88%
    13:00 +8°C° 0 mm 4 m/S 710 mmHg 88%
    14:00 +8°C° 0 mm 3 m/S 711 mmHg 88%
    15:00 +8°C° 0 mm 3 m/S 711 mmHg 88%
    16:00 +7°C° 0 mm 3 m/S 711 mmHg 87%
    17:00 +7°C° 0 mm 3 m/S 711 mmHg 87%
    18:00 +7°C° 0 mm 3 m/S 712 mmHg 86%
    19:00 +6°C° 0 mm 2 m/S 712 mmHg 86%
    20:00 +5°C° 0 mm 2 m/S 712 mmHg 86%
    21:00 +5°C° 0 mm 2 m/S 712 mmHg 86%
    22:00 +5°C° 0 mm 2 m/S 712 mmHg 86%
    23:00 +4°C° 0 mm 2 m/S 711 mmHg 86%
    Mehr zeigen